Hourly Data Report for June 23, 2021

MIRAMICHI RCS
NEW BRUNSWICK
Current Station Operator: ECCC - MSC

47°00'34.000" N
65°27'54.000" W
33.00 m
8100989
71744
ACQ

Download Data

Hourly Data (June 2021)
Hourly Data Report for June 23, 2021
TIME
LST
Temp Definition
°C
Dew Point Definition
°C
Rel Hum Definition
%
Precip. Amount Definition
mm

Wind Dir Definition
10's deg

Wind Spd Definition
km/h
Visibility Definition
km
Stn Press Definition
kPa
Hmdx Definition


Wind Chill Definition


Weather Definition


00:00 15.1 13.7 91 LegendMM 31 10   100.16     LegendNANA
01:00 12.6 11.7 95 LegendMM 33 10   100.14     LegendNANA
02:00 12.3 11.5 95 LegendMM 31 10   100.15     LegendNANA
03:00 12.1 11.2 95 LegendMM 32 9   100.08     LegendNANA
04:00 11.9 11.2 95 LegendMM 32 7   100.11     LegendNANA
05:00 11.9 11.1 95 LegendMM 30 12   100.21     LegendNANA
06:00 12.0 11.0 93 LegendMM 30 12   100.30     LegendNANA
07:00 12.4 11.3 93 LegendMM 29 14   100.43     LegendNANA
08:00 13.9 11.5 85 LegendMM 29 17   100.50     LegendNANA
09:00 15.2 11.4 78 LegendMM 29 14   100.53     LegendNANA
10:00 16.9 10.6 67 LegendMM 28 16   100.63     LegendNANA
11:00 18.6 11.2 62 LegendMM 28 15   100.68     LegendNANA
12:00 19.2 8.8 51 LegendMM 29 16   100.71     LegendNANA
13:00 19.4 9.7 53 LegendMM 29 17   100.82     LegendNANA
14:00 20.6 9.0 47 LegendMM 30 15   100.85     LegendNANA
15:00 20.5 7.5 43 LegendMM 27 16   100.94     LegendNANA
16:00 20.8 5.7 37 LegendMM 27 20   101.03     LegendNANA
17:00 19.7 5.4 39 LegendMM 29 16   101.12     LegendNANA
18:00 19.9 4.5 36 LegendMM 28 18   101.20     LegendNANA
19:00 19.5 5.1 39 LegendMM 28 15   101.30     LegendNANA
20:00 17.4 4.5 42 LegendMM 27 9   101.44     LegendNANA
21:00 14.0 6.9 62 LegendMM 26 7   101.57     LegendNANA
22:00 13.1 5.8 61 LegendMM 26 9   101.66     LegendNANA
23:00 11.5 6.2 70 LegendMM 26 8   101.76     LegendNANA

Notes on Data Quality.

Legend

  • E = Estimated
  • M = Missing
  • NA = Not Available*
  • [empty] = Indicates an unobserved value
Date modified: